This demonstration page uses our WeatherBlox Daily Observations layout. Learn more.

39.29038, -76.61219

Hourly Observations for July 11, 2016

Temp ( °F °C ) Dew Point ( °F °C ) Humidity (%) Winds ( mph kmh ) Pressure ( in mb ) Visibility ( mi km ) Precip ( " mm )
12:54 am 00:54 undefined 78 25.6 60 15.6 54 54 undefined N/A 30.02 1017 N/A 0 0
1:54 am 01:54 undefined 75 23.9 58 14.4 55 55 undefined N/A 30.04 1017 N/A 0 0
2:54 am 02:54 undefined 73 22.8 58 14.4 59 59 undefined N/A 30.05 1018 N/A 0 0
3:54 am 03:54 undefined 72 22.2 56 13.3 57 57 undefined N/A 30.06 1018 N/A 0 0
4:54 am 04:54 undefined 72 22.2 56 13.3 57 57 undefined N/A 30.06 1018 N/A 0 0
5:54 am 05:54 undefined 71 21.7 56 13.3 59 59 undefined N/A 30.07 1018 N/A 0 0
6:54 am 06:54 undefined 72 22.2 56 13.3 57 57 undefined N/A 30.09 1019 N/A 0 0
7:54 am 07:54 undefined 73 22.8 57 13.9 57 57 undefined N/A 30.1 1019 N/A 0 0
8:54 am 08:54 undefined 75 23.9 58 14.4 55 55 undefined N/A 30.11 1020 N/A 0 0
9:54 am 09:54 undefined 78 25.6 57 13.9 48 48 undefined N/A 30.11 1020 N/A 0 0
10:54 am 10:54 undefined 80 26.7 57 13.9 45 45 undefined N/A 30.11 1020 N/A 0 0
11:54 am 11:54 undefined 82 27.8 56 13.3 41 41 undefined N/A 30.1 1019 N/A 0 0
12:54 pm 12:54 undefined 81 27.2 58 14.4 45 45 undefined N/A 30.09 1019 N/A 0 0
1:54 pm 13:54 undefined 83 28.3 57 13.9 41 41 undefined N/A 30.08 1019 N/A 0 0
2:54 pm 14:54 undefined 84 28.9 60 15.6 44 44 undefined N/A 30.06 1018 N/A 0 0
3:54 pm 15:54 undefined 87 30.6 56 13.3 35 35 undefined N/A 30.06 1018 N/A 0 0
4:54 pm 16:54 undefined 86 30 60 15.6 42 42 undefined N/A 30.06 1018 N/A 0 0
5:54 pm 17:54 undefined 84 28.9 62 16.7 48 48 undefined N/A 30.06 1018 N/A 0 0
6:54 pm 18:54 undefined 83 28.3 60 15.6 46 46 undefined N/A 30.06 1018 N/A 0 0
7:54 pm 19:54 undefined 83 28.3 61 16.1 48 48 undefined N/A 30.07 1018 N/A 0 0
8:54 pm 20:54 undefined 81 27.2 62 16.7 53 53 undefined N/A 30.08 1019 N/A 0 0
9:54 pm 21:54 undefined 80 26.7 62 16.7 54 54 undefined N/A 30.08 1019 N/A 0 0
10:54 pm 22:54 undefined 78 25.6 62 16.7 58 58 undefined N/A 30.09 1019 N/A 0 0
11:54 pm 23:54 undefined 78 25.6 63 17.2 60 60 undefined N/A 30.07 1018 N/A 0 0

Powered by AerisWeather